ECHOSTAR 16

Last updated on Tue Sep 22 2026 00:03:12 GMT+0000 (Coordinated Universal Time)

1 39008U 12065A 26264.47693729 .00000000 00000+0 00000+0 0 9999 2 39008 0.0244 161.1763 0002055 22.5620 286.8239 1.00268567 50611
UTC large
Height (km)
Speed (km/s)
/
Latitude / Longitude
Inclination (degrees)
Orbital Period (minutes)
Azimuth
Elevation
Range (km)
Doppler Factor

Next 0 passes for location: London (51.5072 / 0.1276)

No passes found over London.
ECHOSTAR 16